Location: Newark
(6.1731°S, 35.7419°E)
Time: 21:58:47
(UTC+00:00)

SR - All Passes

Search period start: 28 February 2020 00:00
Search period end: 09 March 2020 00:00
Orbit: 576 x 880 km, 66.7° (Epoch: 27 February)

Date Brightness Start Highest point End Pass type
(mag) Time Alt. Az. Time Alt. Az. Time Alt. Az.
28 Feb - 09:19:47 10° S 09:25:04 47° ESE 09:30:38 10° NE daylight
28 Feb - 11:04:21 10° W 11:06:57 13° WNW 11:09:36 10° NW daylight
28 Feb - 21:50:48 10° NNW 21:55:10 66° ENE 21:59:22 10° SSE night (unlit)
29 Feb - 08:31:32 10° SSE 08:35:28 20° ESE 08:39:31 10° ENE daylight
29 Feb - 10:12:22 10° SW 10:17:19 32° WNW 10:22:28 10° N daylight
29 Feb - 21:02:14 10° NNE 21:05:36 21° ENE 21:08:50 10° ESE night (unlit)
29 Feb - 22:44:56 10° WNW 22:47:20 15° WSW 22:49:41 10° SW night (unlit)
01 Mar - 09:22:08 10° SSW 09:27:42 79° WNW 09:33:33 10° NNE daylight
01 Mar - 21:53:36 10° NW 21:57:44 42° WSW 22:01:45 10° S night (unlit)
02 Mar - 08:32:51 10° S 08:38:06 43° ESE 08:43:36 10° NE daylight
02 Mar - 10:16:58 10° WSW 10:19:59 15° WNW 10:23:03 10° NW daylight
02 Mar - 21:03:51 10° N 21:08:10 58° ENE 21:12:20 10° SSE night (unlit)
03 Mar - 07:44:45 10° SSE 07:48:29 18° ESE 07:52:20 10° ENE daylight
03 Mar - 09:25:17 10° SW 09:30:21 35° WNW 09:35:37 10° N daylight
03 Mar - 20:15:26 10° NNE 20:18:35 19° ENE 20:21:39 10° ESE night (unlit)
03 Mar - 21:57:40 10° WNW 22:00:19 16° WSW 22:02:57 10° SSW night (unlit)
04 Mar - 08:35:09 10° SSW 08:40:44 85° WNW 08:46:36 10° NNE daylight
04 Mar - 21:06:32 10° NW 21:10:43 47° WSW 21:14:48 10° S night (unlit)
05 Mar - 07:45:57 10° S 07:51:08 40° ESE 07:56:34 10° NE daylight
05 Mar - 09:29:39 10° WSW 09:33:00 16° WNW 09:36:26 10° NW daylight
05 Mar - 20:16:55 10° N 20:21:10 52° ENE 20:25:16 10° SSE night (unlit)
06 Mar - 06:57:59 10° SSE 07:01:31 17° ESE 07:05:07 10° ENE daylight
06 Mar - 08:38:12 10° SW 08:43:22 38° WNW 08:48:46 10° N daylight
06 Mar - 19:28:41 10° NNE 19:31:34 17° ENE 19:34:25 10° ESE night (unlit)
06 Mar - 21:10:25 10° WNW 21:13:19 18° WSW 21:16:10 10° SSW night (unlit)
07 Mar - 07:48:09 10° SSW 07:53:46 89° ESE 07:59:39 10° NNE daylight
07 Mar - 20:19:29 10° NNW 20:23:43 52° WSW 20:27:50 10° S night (unlit)
08 Mar - 06:59:02 10° S 07:04:10 37° ESE 07:09:31 10° NE daylight
08 Mar - 08:42:23 10° WSW 08:46:02 17° WNW 08:49:46 10° NNW daylight
08 Mar - 19:29:58 10° N 19:34:09 47° ENE 19:38:12 10° SE night (unlit)
